Location: Unspecified
(0.0000°N, 0.0000°E)
Time: 03:42:26
(UTC+02:00)

ASC 2 Rocket - Visible Passes

Search period start: 28 September 2016 00:00
Search period end: 08 October 2016 00:00
Orbit: 555 x 2346 km, 24.0° (Epoch: 26 September)

Date Brightness Start Highest point End Pass type
(mag) Time Alt. Az. Time Alt. Az. Time Alt. Az.
28 Sep 6.5 04:38:10 26° SSE 04:38:10 26° SSE 04:44:24 10° SE visible
28 Sep 6.7 06:32:59 11° SW 06:41:00 23° S 06:51:00 10° SE visible
29 Sep 7.3 03:36:01 10° SE 03:36:01 10° SE 03:36:08 10° SE visible
29 Sep 6.4 05:30:50 22° SSW 05:32:38 23° S 05:41:49 10° SE visible
30 Sep 6.7 04:28:41 19° SSE 04:28:41 19° SSE 04:33:02 10° SE visible
30 Sep 6.8 06:23:43 10° SW 06:31:17 21° S 06:40:23 10° SE visible
01 Oct 6.5 05:21:21 18° SSW 05:23:02 19° S 05:30:43 10° SE visible
01 Oct 7.0 07:21:18 10° SW 07:30:07 23° S 07:40:20 10° ESE visible
02 Oct 6.9 04:19:12 14° SSE 04:19:12 14° SSE 04:21:39 10° SE visible
02 Oct 6.8 06:14:41 10° SW 06:21:37 19° S 06:29:58 10° SE visible
03 Oct 6.6 05:11:54 16° S 05:13:31 16° S 05:19:45 10° SE visible
03 Oct 6.9 07:11:32 10° SW 07:20:12 24° SSE 07:30:31 10° ESE visible
04 Oct 7.1 04:09:47 11° SSE 04:09:47 11° SSE 04:10:12 10° SSE visible
04 Oct 6.8 06:05:28 10° SSW 06:11:56 19° SSE 06:19:48 10° SE visible
04 Oct 5.1 20:48:17 10° NNW 20:50:21 13° NNE 20:51:25 12° NNE visible
05 Oct 6.7 05:02:31 14° S 05:04:03 14° S 05:09:00 10° SE visible
05 Oct 6.8 07:01:38 10° SSW 07:10:10 26° SSE 07:20:41 10° ESE visible
05 Oct 5.2 21:43:01 10° NW 21:44:33 18° NNW 21:44:33 18° NNW visible
06 Oct 6.7 05:56:00 10° SSW 06:02:13 19° SSE 06:09:51 10° ESE visible
06 Oct 4.7 20:37:03 10° NNW 20:40:55 20° NNE 20:42:51 16° NE visible
07 Oct 6.7 04:53:19 13° S 04:54:34 13° SSE 04:58:34 10° SE visible
07 Oct 6.7 06:51:39 10° SSW 07:00:03 29° SSE 07:10:48 10° ESE visible
07 Oct 4.1 21:32:44 10° NW 21:36:04 37° NNW 21:36:04 37° NNW visible
